Dewpoint
46 45 46 46 47 46 47 47 46 42 41 46 46 44 43 41 38 36 37 40 42 44 43 43 43 44 44 44 45 45 46 46 46 46 45 45 45 45
45 44 44 44 44 44 44 44 46 46 42 46 45 44 42 40 38 35 36 37 39 41 41 40 40 40 40 40 42 43 42 41 42 42 43 43 43 43
43 42 42 41 41 41 42 41 41 42 43 44 45 43 41 39 36 34 34 35 37 40 40 39 38 38 38 39 40 39 39 39 39 40 40 40 40 40
41 41 41 39 38 38 39 39 38 38 40 40 44 42 38 36 34 33 32 36 34 35 35 35 35 36 37 37 37 37 36 37 37 37 38 38 39 39
40 40 40 37 36 35 35 36 35 34 36 39 40 40 38 34 33 33 30 33 28 28 32 34 34 35 37 36 36 35 35 35 35 36 36 36 35 36
40 39 39 37 34 33 32 32 31 28 31 34 36 37 35 33 30 28 24 29 29 27 28 34 37 36 37 35 34 34 33 34 35 35 34 33 33 34
39 38 37 36 35 33 31 30 28 26 24 25 29 32 31 30 29 26 25 26 28 28 25 27 29 27 26 26 28 33 33 34 34 34 34 34 33 33
37 37 37 37 36 36 35 36 32 26 23 23 23 23 24 25 25 25 24 20 14 27 25 23 28 24 25 25 34 34 34 33 33 33 33 32 33 33
36 36 35 35 36 33 34 34 34 35 34 27 24 23 22 24 25 25 25 22 18 23 25 20 25 24 24 26 36 34 32 32 32 31 31 32 31 31
36 35 34 34 34 34 32 30 31 29 27 29 30 27 25 26 26 25 23 22 24 26 26 17 23 21 23 27 33 31 30 30 29 29 30 30 30 30
36 35 34 34 34 36 33 30 28 27 28 30 31 29 30 31 29 25 21 18 15 20 25 22 22 20 21 23 28 30 28 28 28 27 29 29 29 29
35 34 36 35 35 36 36 32 28 26 25 29 31 32 31 30 29 25 22 16 17 14 24 21 21 20 12 21 23 24 24 25 25 26 28 28 28 28
33 33 33 34 37 36 37 32 30 28 27 26 28 29 27 27 26 25 24 21 18 15 25 22 20 20 19 18 20 22 23 22 23 24 25 26 26 26
35 34 33 33 34 36 37 36 34 32 27 28 26 26 26 25 25 25 25 24 23 20 26 23 19 19 18 17 15 20 21 22 23 23 23 25 24 24
37 37 36 35 34 35 36 38 37 34 29 26 26 26 26 26 26 25 25 25 24 25 26 25 23 20 20 19 18 20 22 21 22 22 22 22 22 22
33 33 35 38 35 34 34 35 37 35 31 29 27 27 26 25 24 24 23 23 21 20 22 23 24 23 24 23 23 21 22 20 21 21 22 22 22 22
36 34 33 33 34 33 32 33 35 35 32 30 28 27 25 25 25 24 23 22 21 19 20 22 23 23 25 24 20 20 20 20 21 21 21 20 20 22
39 36 34 34 33 33 32 32 34 34 33 31 30 28 27 25 25 24 23 23 22 21 20 21 21 20 19 20 23 20 20 20 20 20 20 20 20 21
37 36 35 35 34 33 33 32 32 33 34 32 31 30 28 27 26 24 23 23 22 22 21 21 21 19 16 14 17 24 22 20 19 19 20 20 20 21
36 35 35 35 34 33 32 32 32 32 32 31 31 30 29 28 27 25 24 23 23 22 21 22 21 19 17 15 17 18 22 20 19 19 19 21 23 24
33 34 34 35 34 34 32 32 32 32 32 31 31 31 30 29 27 26 25 26 24 22 21 21 21 22 19 19 18 17 17 20 21 21 21 22 21 22
31 32 33 34 34 34 33 32 31 31 31 31 31 31 30 29 27 26 26 25 25 22 22 23 22 22 20 18 16 16 17 19 19 21 22 23 23 21
31 32 32 33 33 33 33 32 31 31 31 31 31 30 29 28 28 27 26 26 25 23 22 21 21 20 19 17 17 17 17 17 18 18 20 23 25 26
Wind_Speed
7 8 9 9 7 6 7 6 6 7 11 1 2 1 4 5 9 10 12 16 16 16 17 18 19 18 16 15 17 18 18 15 12 12 12 9 10 8
8 9 9 9 9 7 7 7 8 8 9 1 3 2 4 4 6 8 9 10 14 12 13 13 14 14 14 14 16 16 14 12 11 12 10 8 8 7
9 9 10 8 10 9 7 6 7 6 10 6 2 1 2 4 4 6 8 8 8 11 10 10 11 12 13 13 14 13 13 12 11 10 9 9 8 9
12 10 12 8 10 9 8 9 8 6 6 11 3 2 2 2 3 3 5 6 9 10 10 10 9 9 9 10 11 12 13 13 11 10 11 10 9 8
13 12 13 8 11 9 9 9 8 7 7 7 6 2 2 1 2 1 2 2 4 9 11 9 8 7 8 9 9 9 9 9 8 8 9 8 8 8
14 14 13 11 11 10 9 10 8 8 6 8 8 6 4 2 1 3 5 2 3 5 6 8 9 9 9 8 7 6 6 7 7 7 6 6 5 5
16 14 14 13 13 11 9 9 8 8 7 8 8 5 6 5 5 1 2 2 2 3 4 3 3 4 7 8 6 6 3 6 7 6 6 6 7 8
20 17 15 15 15 15 14 12 10 10 10 6 6 9 9 7 4 4 3 2 2 1 2 3 2 2 3 6 5 3 5 5 5 7 7 7 8 9
19 17 17 14 16 14 14 13 12 10 11 8 11 10 6 6 5 5 5 3 4 2 2 3 0 3 1 3 4 4 2 1 3 8 10 8 8 9
18 18 18 17 15 15 15 14 14 12 11 10 12 11 10 5 7 4 5 4 2 3 0 4 1 3 4 3 5 3 2 2 6 10 9 8 8 10
17 18 19 19 16 17 16 18 17 16 11 12 10 9 9 10 10 8 5 4 3 3 3 2 1 3 2 3 1 2 1 2 7 11 7 7 8 11
14 16 18 19 17 19 20 19 20 18 14 10 7 7 7 8 9 7 8 7 5 3 5 4 2 1 2 2 3 4 4 4 8 7 6 7 10 10
15 15 14 17 21 21 23 19 20 12 14 15 13 11 9 9 8 7 9 9 8 7 5 4 3 1 0 4 3 1 3 4 7 6 6 10 13 15
16 14 14 15 17 22 22 23 22 15 11 13 12 12 12 12 12 9 7 6 4 3 6 5 3 5 3 3 4 3 3 8 4 6 10 11 15 17
13 16 18 17 16 17 21 23 21 17 15 14 14 14 14 9 7 5 5 3 3 4 5 6 6 6 6 4 3 5 6 5 9 6 7 10 12 13
10 11 12 15 14 15 14 14 17 16 17 16 13 9 7 9 11 10 8 6 4 3 3 5 7 7 6 8 8 9 7 6 5 12 12 11 12 11
11 7 9 9 13 13 12 12 11 13 15 12 12 13 12 11 10 9 7 6 7 3 3 3 4 6 8 8 7 10 10 10 12 14 12 15 14 14
10 11 13 13 14 13 12 12 13 16 16 15 15 15 14 14 12 9 7 9 10 8 6 5 4 1 3 7 16 12 7 9 10 13 13 12 14 11
11 11 13 12 13 13 13 13 14 15 14 16 17 17 16 16 16 13 13 10 10 7 8 7 6 4 3 6 5 10 9 8 11 13 12 12 17 19
11 12 13 13 13 13 13 14 13 12 15 16 16 17 17 18 17 17 16 14 12 9 9 9 9 9 7 3 3 4 5 11 14 15 15 13 16 24
12 12 12 13 13 12 13 12 14 14 15 15 16 16 16 17 16 16 16 18 15 12 13 13 12 11 6 2 5 7 9 10 13 15 14 14 13 8
12 12 13 13 13 12 11 11 12 13 12 14 14 14 14 16 16 17 16 16 15 13 10 8 7 7 6 7 11 11 12 13 16 17 17 16 9 6
12 12 12 12 12 11 10 11 12 13 12 13 13 12 13 15 14 15 15 14 13 12 10 9 10 7 7 7 9 11 13 15 10 16 12 7 12 19
Wind_Direction
282 290 284 286 282 279 276 269 275 302 306 234 275 61 20 15 11 6 3 16 30 40 45 48 51 55 62 65 70 76 78 78 83 85 77 72 73 67
283 280 279 280 285 283 277 270 264 259 274 262 261 319 352 354 14 10 15 14 22 32 44 51 57 58 56 58 68 74 78 80 76 74 79 74 67 64
280 274 278 288 290 291 283 270 257 244 262 286 264 305 305 339 352 8 13 20 27 42 37 39 42 49 59 59 64 65 63 60 61 66 68 62 54 50
270 266 267 277 279 283 279 273 267 251 244 276 280 284 263 307 316 346 11 17 22 26 31 27 41 48 56 64 71 73 59 51 47 45 45 48 49 47
260 264 267 270 276 273 263 260 258 256 240 247 279 248 252 332 303 317 351 1 22 13 17 19 28 54 71 72 75 74 57 51 53 65 63 49 40 29
247 241 243 244 255 268 272 273 273 273 270 262 273 273 270 278 299 277 288 339 318 5 19 25 41 52 61 54 51 49 54 66 73 69 50 38 25 3
250 245 241 238 235 228 229 246 240 246 249 253 262 274 282 286 261 255 262 293 293 353 334 2 10 14 13 8 0 354 69 74 56 39 21 4 352 340
252 248 241 234 232 229 230 229 217 224 238 240 246 249 251 236 222 236 251 286 275 51 330 275 349 310 339 347 332 131 117 58 49 35 8 343 330 322
246 248 251 238 233 230 233 232 227 221 221 220 243 243 256 230 187 200 219 224 254 289 324 268 278 241 286 312 322 160 93 61 34 355 345 343 334 329
246 243 243 248 235 229 230 235 231 231 230 230 231 246 239 222 191 177 190 192 231 251 46 273 346 272 321 286 295 132 9 47 10 349 344 339 334 329
248 240 240 244 235 226 227 235 242 242 233 230 227 226 209 186 174 151 179 186 252 249 199 221 289 284 275 262 326 135 355 300 338 343 329 335 337 330
263 253 242 240 231 221 219 224 240 240 226 215 211 201 183 181 179 190 175 197 202 258 204 211 216 343 281 252 247 257 281 292 330 329 324 316 319 310
267 268 253 244 240 232 222 215 226 218 223 216 212 201 190 185 182 183 190 188 196 227 191 169 180 198 304 300 301 295 259 292 322 305 317 317 320 317
267 270 265 253 246 240 232 227 225 218 206 206 216 218 216 213 206 195 191 194 202 205 175 171 180 181 169 287 276 319 269 293 276 289 299 302 311 308
267 268 269 262 254 250 246 235 224 207 197 200 218 222 217 216 187 173 166 165 185 205 204 198 207 182 194 209 281 284 326 302 292 278 291 304 306 305
294 294 290 273 254 254 253 248 226 202 197 209 210 211 189 186 193 183 194 192 202 223 219 222 208 191 214 228 237 271 261 280 298 305 301 301 298 281
286 281 289 280 270 263 257 247 229 205 203 200 194 197 207 201 196 185 182 186 207 191 206 186 196 216 231 229 265 251 264 265 272 286 297 302 294 285
283 259 264 262 262 257 248 240 219 214 209 198 197 198 203 199 194 183 182 199 212 214 220 205 188 250 282 259 223 251 265 268 287 294 290 294 291 283
275 269 259 256 258 252 242 229 225 221 211 202 204 202 196 192 189 190 193 196 212 210 214 202 189 186 256 276 312 220 248 282 299 296 284 267 286 293
284 280 271 262 258 252 241 234 231 222 213 213 211 204 196 194 192 193 191 194 197 196 206 206 201 197 196 219 289 273 237 278 285 288 291 285 277 285
294 283 272 266 257 248 243 235 229 228 221 217 215 210 203 195 197 190 190 195 191 187 208 210 213 213 190 123 269 279 292 285 284 281 284 296 302 293
297 294 290 280 271 259 244 238 235 236 231 221 218 210 200 196 193 187 189 190 193 189 196 182 187 167 174 222 268 283 295 309 308 293 280 253 249 286
292 287 290 287 279 269 250 239 235 236 230 222 214 204 191 196 194 190 188 185 174 169 170 180 171 175 210 231 263 287 302 312 309 319 319 286 270 269